sat.trackr.live / text

‹ back to catalog

STARLINK-31517

NORAD 59213 · 2024-046N

PAYLOAD ACTIVE UNKNOWN

§ Identity

Operator
Country
US
Launch date
2024-03-11
Launch site
AFWTR
Launch vehicle
Mass (kg)
RCS (m²)

Purposes: comms

External: N2YO · Heavens-Above · Gunter

§ Orbital elements

Epoch: 2026-09-20T11:16:23.121984Z

Period
93.85 min
Inclination
53.1605°
Eccentricity
0.0001154
Mean motion
15.34394721 rev/d
Perigee alt
461.9 km
Apogee alt
463.5 km
Semi-major
6,840.9 km
B*
-1.7228e-5
RAAN
326.2088°
Arg perigee
67.0660°
Mean anomaly
293.0465°
Rev number
14,292

§ Raw data

STARLINK-315171 59213U 24046N   26263.46971206 -.00000958  00000+0 -17228-4 0  99972 59213  53.1605 326.2088 0001154  67.0660 293.0465 15.34394721142923

JSON: /api/v1/satellites/59213 · /tle

For live sub-satellite position, see the globe view (requires WebGL).

§ Visibility from observer

Set your observer location to see the next 7 days of passes ≥ 10°. The values pass through the URL so the page stays shareable.

No JS? Fill the form by hand. The geolocation button needs JavaScript.